Location: Unspecified
(0.0000°N, 0.0000°E)
Time: 17:51:41
(UTC+00:00)

ARIANE 6 FM1 Upper Stage - Pass Details

Date: 14 May 2026
Orbit: 526 x 601 km, 62.0° (Epoch: 21 May)

Event Time Altitude Azimuth Distance (km) Brightness Sun altitude
Rises 19:54:28 0° 324° (NW) 2,657 7.0 -27.8°
Reaches altitude 10° 19:56:43 10° 316° (NW) 1,778 6.0 -28.3°
Enters shadow 19:59:26 34° 284° (WNW) 899 4.2 -29.0°
